Showing default

HULIANWANG DIGUI-42, 65045

Orbit data source: Space-Track

HULIANWANG DIGUI-42, 65045 is a payload satellite owned by Zhongguo Xingwang (CN) in LEO that was launched on Wed, 30 Jul 2025 UTC via a CHANG ZHENG 8A launch vehicle from the Wenchang Satellite Launch Center (WSC). Payload-class satellites include a variety of spacecraft equipped with specific instruments for various scientific and technological missions. These include communications satellites like Starlink; space stations such as the ISS; scientific satellites like the Hubble; Earth observation satellites from companies like Planet Labs, Umbra, and HawkEye 360; GPS; miniature CubeSats for education and research; and military/defense satellites.

Loading next visibility...
Identifier
65045, 2025-162C
Orbit
LEO
Country
Flag of CNCN / PRC
Related business
Manufacturer
SECM
Mission
Operational Civil Communications
Bus & Motor
XINGWANG S, Unknown motor
Mass
~800 kg wet, ~800 kg dry
Launch date (UTC)
2025-07-30 (11 months ago)
Launch vehicle
CHANG ZHENG 8A
Launch site
Wenchang Satellite Launch Center (WSC)
Object type
Payload
Rocket body
Debris
Shape & HBR
Box + 2 Pan, 14.5 m
Radar Cross Section
5.935 m², Large (>1 m²)

Expand to show TLE details & history
Last TLE update: 14 hours ago

TLE from 14 hours ago
0 HULIANWANG DIGUI-42
1 65045U 25162C   26171.38210829 -.00000091  00000-0  70469-4 0  9997
2 65045  49.9970 254.2707 0000261 177.2273 182.8600 13.29326008 43786
Epoch: 2026-06-20T09:10Z
TLE epoch observation values (Epoch: 2026-06-20T09:10:14.156Z)
Latitude
-0.00005°
Longitude
-151.88586°
Altitude
1,150.008 km
Speed
7.279 km/s
True Right ascension
16h 57m 04s
True Declination
0° 00' 00"
Sunlit
Object was in full shadow at epoch
Visualization orbit readout
Latitude
Unknown
Longitude
Unknown
Altitude
Unknown
Speed
Unknown
Apparent Right ascension
Unknown
Apparent Declination
Unknown
Sunlit
N/A
Visualization observer readout
Local Sidereal Time
10:19:46
Azimuth
Unknown
Elevation
Unknown
Doppler factor
Unknown
Orbital elements
Apogee altitude
1,150.209 km
Perigee altitude
1,149.816 km
Semi-major axis
7,528.149 km
Eccentricity
0.00003
Inclination
49.997°
RAAN
254.2707°
Arg. of periapsis
177.2273°
True anomaly
182.85985°
Mean anomaly
182.86°
Eccentric anomaly
182.85993°
Mean motion
3.32285 °/min
Orbital period
108.34 mins
BSTAR
0.000070469
Loading maneuver chart data...
Computing Atmospheric mass density...
Loading historical data...
Loading historical data...
Loading historical data...
Loading historical data...
Loading historical data...
Loading historical data...
Loading historical data...

Documentation

Showing up to 5 results
|